Location: AstroGeek's Observatory
(41.9520°N, 70.9880°W)
Time: 08:15:11
(UTC-04:00)

ISS - All Passes

Search period start: 27 May 2016 00:00
Search period end: 06 June 2016 00:00
Orbit: 402 x 404 km, 51.6° (Epoch: 27 May)

Date Brightness Start Highest point End Pass type
(mag) Time Alt. Az. Time Alt. Az. Time Alt. Az.
27 May - 00:45:40 10° NW 00:47:44 15° N 00:49:47 10° NNE visible
27 May - 02:22:37 10° NW 02:25:06 19° NNE 02:27:33 10° ENE visible
27 May - 03:58:41 10° NW 04:01:58 75° NE 04:05:13 10° ESE visible
27 May - 05:36:29 10° WSW 05:37:59 13° SW 05:39:31 10° SSW daylight
27 May - 20:39:15 10° S 20:41:33 18° SE 20:43:51 10° E visible
27 May - 22:14:31 10° WSW 22:17:43 54° NNW 22:20:57 10° NE visible
27 May - 23:52:24 10° WNW 23:54:42 18° NNW 23:57:00 10° NNE visible
28 May - 01:29:55 10° NNW 01:32:05 16° N 01:34:15 10° NE visible
28 May - 03:06:01 10° NW 03:09:09 42° NNE 03:12:17 10° ESE visible
28 May - 04:42:46 10° W 04:45:27 24° SW 04:48:07 10° S daylight
28 May - 21:21:41 10° SW 21:24:57 82° SE 21:28:14 10° ENE visible
28 May - 22:59:06 10° WNW 23:01:43 22° NNW 23:04:20 10° NE visible
29 May - 00:37:02 10° NW 00:39:02 15° N 00:41:02 10° NE visible
29 May - 02:13:23 10° NW 02:16:16 28° NNE 02:19:09 10° E visible
29 May - 03:49:41 10° WNW 03:52:50 46° SW 03:55:58 10° SE visible
29 May - 20:29:10 10° SSW 20:32:15 41° SE 20:35:21 10° ENE daylight
29 May - 22:05:50 10° W 22:08:46 30° NNW 22:11:42 10° NE visible
29 May - 23:43:58 10° NW 23:45:59 15° N 23:48:00 10° NE visible
30 May - 01:20:45 10° NW 01:23:19 21° NNE 01:25:53 10° ENE visible
30 May - 02:56:51 10° NW 03:00:08 90° ESE 03:03:23 10° SE visible
30 May - 04:35:30 10° WSW 04:36:04 10° SW 04:36:38 10° SW visible
30 May - 19:37:04 10° S 19:39:38 22° SE 19:42:13 10° E daylight
30 May - 21:12:44 10° WSW 21:15:53 46° NNW 21:19:04 10° NE visible
30 May - 22:50:43 10° NW 22:52:56 17° N 22:55:09 10° NNE visible
31 May - 00:28:03 10° NNW 00:30:19 17° N 00:32:34 10° NE visible
31 May - 02:04:08 10° NW 02:07:20 50° NNE 02:10:31 10° ESE visible
31 May - 03:41:05 10° W 03:43:33 20° SW 03:46:00 10° S night (unlit)
31 May - 18:45:58 10° SSE 18:47:06 11° SE 18:48:14 10° ESE daylight
31 May - 20:19:49 10° WSW 20:23:05 83° NW 20:26:21 10° NE daylight
31 May - 21:57:23 10° WNW 21:59:55 20° NNW 22:02:27 10° NE visible
31 May - 23:35:14 10° NW 23:37:16 15° N 23:39:18 10° NE visible
01 Jun - 01:11:29 10° NW 01:14:28 31° NNE 01:17:25 10° E visible
01 Jun - 02:47:53 10° WNW 02:50:56 37° SW 02:53:58 10° SSE visible
01 Jun - 19:27:11 10° SW 19:30:21 50° SE 19:33:32 10° ENE daylight
01 Jun - 21:04:06 10° W 21:06:57 27° NNW 21:09:48 10° NE visible
01 Jun - 22:42:12 10° NW 22:44:12 15° N 22:46:12 10° NE visible
02 Jun - 00:18:51 10° NW 00:21:31 22° NNE 00:24:11 10° ENE visible
02 Jun - 01:54:59 10° WNW 01:58:15 75° SW 02:01:30 10° SE visible
02 Jun - 18:34:56 10° SSW 18:37:42 26° SE 18:40:30 10° ENE daylight
02 Jun - 20:10:56 10° W 20:14:03 40° NNW 20:17:10 10° NE daylight
02 Jun - 21:48:59 10° NW 21:51:08 16° N 21:53:17 10° NNE visible
02 Jun - 23:26:10 10° NNW 23:28:31 18° NNE 23:30:51 10° ENE visible
03 Jun - 01:02:14 10° NW 01:05:28 59° NNE 01:08:41 10° ESE visible
03 Jun - 02:39:27 10° W 02:41:36 16° SW 02:43:45 10° S night (unlit)
03 Jun - 17:43:21 10° SSE 17:45:08 14° SE 17:46:55 10° E daylight
03 Jun - 19:17:57 10° WSW 19:21:12 69° NNW 19:24:28 10° NE daylight
03 Jun - 20:55:40 10° WNW 20:58:06 19° NNW 21:00:32 10° NE visible
03 Jun - 22:33:22 10° NNW 22:35:28 16° N 22:37:33 10° NE visible
04 Jun - 00:09:34 10° NW 00:12:36 35° NNE 00:15:39 10° E visible
04 Jun - 01:46:04 10° WNW 01:49:00 31° SW 01:51:55 10° SSE visible
04 Jun - 18:25:13 10° SW 18:28:26 62° SE 18:31:41 10° ENE daylight
04 Jun - 20:02:20 10° WNW 20:05:06 24° NNW 20:07:52 10° NE daylight
04 Jun - 21:40:24 10° NW 21:42:23 15° N 21:44:22 10° NE visible
04 Jun - 23:16:54 10° NW 23:19:40 24° NNE 23:22:25 10° ENE visible
05 Jun - 00:53:05 10° WNW 00:56:20 61° SW 00:59:33 10° SE visible
05 Jun - 17:32:49 10° SSW 17:35:45 31° SE 17:38:42 10° ENE daylight
05 Jun - 19:09:07 10° W 19:12:09 35° NNW 19:15:12 10° NE daylight
05 Jun - 20:47:13 10° NW 20:49:18 16° N 20:51:24 10° NNE visible
05 Jun - 22:24:14 10° NW 22:26:40 19° NNE 22:29:06 10° ENE visible
